W8XLR-2 Weather Reports


Display with metric or nautical units.
time (UTC)temp
F
wind
direction
speed
MPH
gust
MPH
rain 1hr
in
rain 24hr
in
rain mn
in
humidity
%
barometer
mb
20260504005647 54 239 2.0 3.0 0.00 0.00 0.00 52 1015.4
20260504004651 54 239 2.0 3.0 0.00 0.00 0.00 52 1015.4
20260504003654 55 242 2.0 4.0 0.00 0.00 0.00 51 1015.4
20260504002649 55 246 2.0 4.0 0.00 0.00 0.00 49 1015.4
20260504001735 55 246 2.0 4.0 0.00 0.00 0.00 49 1015.4
20260504001648 55 246 2.0 4.0 0.00 0.00 0.00 49 1015.4
20260504000649 56 241 2.0 7.0 0.00 0.00 0.00 49 1015.3
20260504000259 56 248 1.0 5.0 0.00 0.00 0.00 47 1015.5
20260503235651 56 248 1.0 5.0 0.00 0.00 0.00 47 1015.5
20260503234742 56 248 1.0 5.0 0.00 0.00 0.00 47 1015.5
20260503234648 56 248 1.0 5.0 0.00 0.00 0.00 47 1015.5
20260503233648 57 253 1.0 5.0 0.00 0.00 0.00 48 1015.4
20260503232649 57 258 3.0 7.0 0.00 0.00 0.00 45 1015.4
20260503231648 57 258 3.0 7.0 0.00 0.00 0.00 45 1015.4
20260503230648 58 267 2.0 6.0 0.00 0.00 0.00 45 1015.4
20260503225647 58 264 3.0 10.0 0.00 0.00 0.00 44 1015.6
20260503224736 58 264 3.0 10.0 0.00 0.00 0.00 44 1015.6
20260503224648 58 264 3.0 10.0 0.00 0.00 0.00 44 1015.6
20260503223654 58 256 3.0 9.0 0.00 0.00 0.00 44 1015.6
20260503222649 58 268 3.0 8.0 0.00 0.00 0.00 44 1015.7
20260503221649 58 268 3.0 8.0 0.00 0.00 0.00 44 1015.7
20260503220649 58 262 3.0 9.0 0.00 0.00 0.00 45 1015.7
20260503215723 58 259 3.0 9.0 0.00 0.00 0.00 43 1015.6
20260503215648 58 259 3.0 9.0 0.00 0.00 0.00 43 1015.6
20260503214654 58 259 3.0 9.0 0.00 0.00 0.00 43 1015.6
20260503213649 59 265 3.0 9.0 0.00 0.00 0.00 43 1015.5
20260503212649 61 271 2.0 7.0 0.00 0.00 0.00 40 1015.5
20260503211726 61 271 2.0 7.0 0.00 0.00 0.00 40 1015.5
20260503211647 61 271 2.0 7.0 0.00 0.00 0.00 40 1015.5
20260503210650 60 275 3.0 8.0 0.00 0.00 0.00 40 1015.6
20260503205648 59 257 4.0 10.0 0.00 0.00 0.00 40 1015.5
20260503204647 59 257 4.0 10.0 0.00 0.00 0.00 40 1015.5
20260503203648 59 253 4.0 9.0 0.00 0.00 0.00 41 1015.7
20260503202743 60 268 4.0 10.0 0.00 0.00 0.00 38 1015.9
20260503202648 60 268 4.0 10.0 0.00 0.00 0.00 38 1015.9
20260503201648 60 268 4.0 10.0 0.00 0.00 0.00 38 1015.9
20260503200729 60 261 3.0 9.0 0.00 0.00 0.00 41 1016.0
20260503200650 60 261 3.0 9.0 0.00 0.00 0.00 41 1016.0
20260503195719 59 265 3.0 8.0 0.00 0.00 0.00 42 1016.3
20260503195648 59 265 3.0 8.0 0.00 0.00 0.00 42 1016.3
20260503194647 59 265 3.0 8.0 0.00 0.00 0.00 42 1016.3
20260503193651 59 263 4.0 12.0 0.00 0.00 0.00 41 1016.7
20260503192807 60 251 4.0 11.0 0.00 0.00 0.00 41 1016.7
20260503192647 60 251 4.0 11.0 0.00 0.00 0.00 41 1016.7
20260503191647 60 251 4.0 11.0 0.00 0.00 0.00 41 1016.7
20260503190650 60 269 3.0 9.0 0.00 0.00 0.00 40 1017.0
20260503185647 58 249 4.0 10.0 0.00 0.00 0.00 45 1017.2
20260503184649 58 249 4.0 10.0 0.00 0.00 0.00 45 1017.2
20260503183651 59 247 5.0 12.0 0.00 0.00 0.00 43 1017.4
20260503182754 60 269 3.0 7.0 0.00 0.00 0.00 43 1017.5
20260503182650 60 269 3.0 7.0 0.00 0.00 0.00 43 1017.5
20260503181648 60 269 3.0 7.0 0.00 0.00 0.00 43 1017.5
20260503180648 59 276 3.0 8.0 0.00 0.00 0.00 46 1017.7
20260503175722 59 273 3.0 9.0 0.00 0.00 0.00 43 1017.9
20260503175647 59 273 3.0 9.0 0.00 0.00 0.00 43 1017.9
20260503174648 59 273 3.0 9.0 0.00 0.00 0.00 43 1017.9
20260503173649 58 288 3.0 7.0 0.00 0.00 0.00 44 1017.9
20260503172647 58 283 3.0 6.0 0.00 0.00 0.00 43 1018.2
20260503171655 58 283 3.0 6.0 0.00 0.00 0.00 43 1018.2
20260503170722 57 275 3.0 11.0 0.00 0.00 0.00 43 1018.2
20260503170648 57 275 3.0 11.0 0.00 0.00 0.00 43 1018.2
20260503150650 52 246 3.0 11.0 0.00 0.00 0.00 44 1019.1
20260503130652 44 245 2.0 4.0 0.00 0.02 0.00 69 1019.6
20260503110649 35 247 3.0 4.0 0.00 0.07 0.00 85 1018.7
20260503080649 35 249 2.0 3.0 0.00 0.08 0.00 86 1018.5
20260503072801 35 249 2.0 3.0 0.00 0.08 0.00 87 1018.6
20260503072655 35 249 2.0 3.0 0.00 0.08 0.00 87 1018.6
20260503071648 35 249 2.0 3.0 0.00 0.08 0.00 87 1018.6
20260503070649 36 249 2.0 3.0 0.00 0.08 0.00 86 1018.4
20260503054656 37 256 1.0 2.0 0.00 0.08 0.00 81 1018.6
20260503053652 37 258 0.0 2.0 0.00 0.08 0.00 81 1018.7
20260503052648 38 261 1.0 2.0 0.00 0.08 0.00 80 1018.8
20260503051651 38 261 1.0 2.0 0.00 0.08 0.00 80 1018.8
20260503050653 38 277 1.0 2.0 0.00 0.08 0.00 79 1019.0
20260503045735 38 310 1.0 2.0 0.00 0.08 0.00 78 1018.9
20260503045649 38 310 1.0 2.0 0.00 0.08 0.00 78 1018.9
20260503044649 38 310 1.0 2.0 0.00 0.08 0.00 78 1018.9
20260503043651 38 0 0.0 0.0 0.00 0.08 0.00 78 1018.9
20260503042816 38 0 0.0 0.0 0.00 0.08 0.00 78 1019.0
20260503042649 38 0 0.0 0.0 0.00 0.08 0.00 78 1019.0
20260503041648 38 0 0.0 0.0 0.00 0.08 0.00 78 1019.0
20260503040649 38 0 0.0 0.0 0.00 0.08 0.00 78 1019.2
20260503035749 38 0 0.0 0.0 0.00 0.08 0.08 80 1019.3
20260503035654 38 0 0.0 0.0 0.00 0.08 0.08 80 1019.3
20260503034649 38 0 0.0 0.0 0.00 0.08 0.08 80 1019.3
20260503033810 38 0 0.0 0.0 0.00 0.08 0.08 77 1019.3
20260503033651 38 0 0.0 0.0 0.00 0.08 0.08 77 1019.3
20260503032651 38 0 0.0 0.0 0.00 0.08 0.08 78 1019.2
20260503031652 38 0 0.0 0.0 0.00 0.08 0.08 78 1019.2
20260503030649 38 0 0.0 0.0 0.00 0.08 0.08 77 1019.4
20260503025649 38 0 0.0 0.0 0.00 0.08 0.08 77 1019.5
20260503024803 38 0 0.0 0.0 0.00 0.08 0.08 77 1019.5
20260503024648 38 0 0.0 0.0 0.00 0.08 0.08 77 1019.5
20260503023751 38 0 0.0 0.0 0.00 0.08 0.08 74 1019.6
20260503023649 38 0 0.0 0.0 0.00 0.08 0.08 74 1019.6
20260503022738 39 0 0.0 0.0 0.00 0.08 0.08 74 1019.4
20260503022649 39 0 0.0 0.0 0.00 0.08 0.08 74 1019.4
20260503021648 39 0 0.0 0.0 0.00 0.08 0.08 74 1019.4
20260503021009 39 0 0.0 0.0 0.00 0.08 0.08 72 1019.5
20260503020650 39 0 0.0 0.0 0.00 0.08 0.08 72 1019.5
20260503015722 39 0 0.0 0.0 0.00 0.08 0.08 71 1019.5
20260503015649 39 0 0.0 0.0 0.00 0.08 0.08 71 1019.5
20260503014649 39 0 0.0 0.0 0.00 0.08 0.08 71 1019.5
20260503013649 40 0 0.0 0.0 0.00 0.08 0.08 71 1019.3
20260503012649 40 0 0.0 0.0 0.00 0.08 0.08 69 1019.4
20260503011728 40 0 0.0 0.0 0.00 0.08 0.08 69 1019.4
20260503011649 40 0 0.0 0.0 0.00 0.08 0.08 69 1019.4
20260503010740 40 318 0.0 2.0 0.00 0.08 0.08 69 1019.3
20260503010649 40 318 0.0 2.0 0.00 0.08 0.08 69 1019.3